Location: Bazicourt
(49.3432°N, 2.6235°E)
Time: 06:01:44
(UTC+00:00)

Daily predictions for brighter satellites

Satellite Brightness Start Highest point End
(mag) Time Altitude Azimuth Time Altitude Azimuth Time Altitude Azimuth
Centaur D AC-29 4.4 20:13:06 10° SSW 20:18:42 20° SSE 20:34:38 10° ESE
SPOT 5 2.8 20:34:38 10° S 20:38:56 75° WSW 20:43:24 10° NNW
SeaSat 1 2.5 20:35:38 10° SE 20:40:32 76° ENE 20:45:28 10° NNW
Cosmos 968 Rocket 4.3 20:36:27 10° SSE 20:40:56 31° E 20:45:28 10° NE
Cosmos 2219 Rocket 3.1 20:39:20 10° NNW 20:44:41 40° NE 20:50:00 10° ESE
Cosmos 1707 Rocket 4.3 20:41:58 10° SSE 20:46:02 36° E 20:50:05 10° NNE
Cosmos 1400 Rocket 2.7 20:43:52 10° S 20:47:42 68° E 20:51:32 10° NNE
COSMOS 2428 4.3 20:45:27 10° NNW 20:50:10 26° NE 20:54:54 10° E
ATLAS CENTAUR R/B 1.3 20:47:28 10° SSW 20:50:47 43° ESE 20:54:13 10° NE
SL-08 ROCKET BODY 4.5 20:45:25 10° S 20:51:31 73° E 20:57:32 10° NNE
SPOT 3 Rocket 3.7 20:47:19 10° SSE 20:52:23 63° ENE 20:57:30 10° N
Cosmos 1741 Rocket 4.2 20:47:37 10° S 20:52:43 52° ESE 20:57:53 10° NNE
Meteor 1-13 Rocket 4.5 20:49:35 10° SSW 20:55:21 77° WNW 21:01:02 10° N
IRS-1C Rocket 4.5 20:51:45 10° S 20:56:58 66° WSW 21:02:13 10° NNW
USA 234 3.4 20:51:37 10° ENE 20:57:59 52° SE 21:04:19 10° SSW
Timation 1 Rocket 4.3 20:53:44 10° SSW 20:59:39 77° ESE 21:05:38 10° NNE
Cosmos 1356 Rocket 3.6 20:57:12 10° S 21:01:17 53° E 21:05:23 10° NNE
Landsat 4 3.5 20:58:11 10° SSE 21:01:36 69° ENE 21:05:02 10° N
Cosmos 1733 Rocket 3.2 20:59:30 10° N 21:03:55 65° ENE 21:08:17 10° SSE
Cosmos 1953 3.7 21:01:22 10° NNE 21:04:31 24° ENE 21:07:31 11° SE
Okean 1-7 4.3 21:01:50 11° SE 21:05:12 24° E 21:08:42 10° NE
BlueWalker 3 3.5 21:03:54 10° S 21:06:07 15° SE 21:08:19 10° E
Terra 2.0 21:03:02 10° S 21:07:44 76° WSW 21:12:29 10° NNW
Cosmos 1315 Rocket 4.1 21:06:12 12° SE 21:09:08 24° E 21:12:24 10° NE
Cosmos 2360 Rocket 2.3 21:04:55 10° NNW 21:10:38 83° WSW 21:16:01 11° SSE
ARIANE 5 R/B 4.5 21:08:25 10° ESE 21:11:28 19° ENE 21:14:32 10° NNE
ERS-1 Rocket 3.5 21:09:50 10° S 21:14:46 58° W 21:19:45 10° NNW
Cosmos 841 Rocket 4.5 21:12:24 10° NW 21:17:22 43° WSW 21:22:19 10° S
Cosmos 1455 3.3 21:15:24 10° NNE 21:18:26 27° ENE 21:20:53 13° SE
SL-27 R/B 1.7 21:17:01 10° SSW 21:19:46 82° ESE 21:22:35 10° NNE
SL-16 R/B 3.4 21:18:37 10° NW 21:23:44 35° WSW 21:28:48 10° S
OPS 8737 4.0 21:21:43 10° NW 21:24:38 82° NE 21:26:55 17° SE
BREEZE-M DEB (TANK) 3.8 21:21:41 10° WSW 21:25:45 75° SSE 21:41:39 10° ENE
Cosmos 807 4.0 21:26:03 10° S 21:29:16 85° ESE 21:32:13 10° N
Aureole 3 3.7 21:25:42 11° S 21:29:35 67° E 21:34:39 10° NNE
Cosmos 2333 Rocket 2.5 21:24:27 10° NNW 21:30:10 66° WSW 21:35:13 13° SSE
Spot 2 Rocket 4.0 21:26:00 10° S 21:30:58 56° W 21:36:00 10° NNW
SL-14 R/B 3.6 21:27:50 10° SSW 21:31:36 62° WNW 21:35:23 10° N
Cosmos 1346 Rocket 3.2 21:28:42 10° NNW 21:32:30 56° W 21:36:01 11° S
Cosmos 2228 Rocket 3.5 21:32:04 10° SSW 21:36:37 66° WNW 21:41:11 10° N
Cosmos 1655 Rocket 4.4 21:34:13 10° SSW 21:40:35 69° WNW 21:47:00 10° N
COSMOS 2455 4.1 21:38:30 15° SE 21:41:29 21° ESE 21:45:53 10° ENE
ATLAS 2AS CENTAUR R/B 3.0 21:35:58 10° NW 21:42:38 57° WSW 21:47:58 15° SSE
Landsat 5 3.4 21:39:20 10° NNE 21:43:22 75° ESE 21:47:12 12° S
Cosmos 1833 4.2 21:38:30 10° SSW 21:44:08 84° ESE 21:49:48 10° NNE
Cosmos 2237 Rocket 3.8 21:41:43 10° NNW 21:46:33 28° NE 21:51:21 10° ESE
Meteor 1-4 Rocket 1.9 21:44:36 16° S 21:46:51 87° ESE 21:49:52 10° NNE
Cosmos 1242 Rocket 2.9 21:47:47 23° SE 21:48:38 28° E 21:51:04 10° NNE
USA 281 3.6 21:43:40 13° SE 21:49:24 57° NE 21:55:49 10° NNW
Cosmos 2322 3.9 21:46:18 10° NNW 21:52:00 69° ENE 21:56:21 17° SE
Meteor 1-16 Rocket 4.5 21:46:20 10° NNW 21:52:16 76° W 21:57:16 15° S
Okean 3 3.6 21:48:19 10° SSW 21:52:27 72° W 21:56:39 10° N
Kosmos-1783 4.4 21:50:42 10° NW 21:54:20 85° SW 22:00:04 16° SE
Cosmos 839 Rocket 4.3 21:49:02 10° NW 21:55:55 67° WSW 22:00:35 18° SSE
Ariane Rocket 4.2 21:51:17 10° SSW 21:55:58 37° W 22:00:41 10° NNW
Spot 1 4.3 21:51:30 10° NNE 21:56:05 82° WNW 22:00:52 10° SSW
ALOS 2 4.4 21:57:54 10° ESE 22:01:05 21° ENE 22:04:22 10° NNE
H-2A R/B 3.8 21:58:24 15° ESE 22:01:14 30° ENE 22:04:58 10° N
MetOp-A 4.3 21:58:04 16° S 22:02:16 65° WSW 22:07:30 10° NNW
Cosmos 1703 Rocket 3.7 21:59:28 19° S 22:02:31 60° E 22:06:54 10° NNE
Cosmos 1862 Rocket 4.5 21:59:09 10° SSW 22:03:23 47° WNW 22:07:42 10° N
Cosmos 2322 Rocket 3.7 22:00:30 10° NW 22:05:12 27° WSW 22:09:53 10° SSW
SL-4 R/B 2.0 22:04:19 10° WNW 22:08:15 82° NNE 22:12:22 10° ESE
Cosmos 2297 Rocket 3.5 22:11:53 18° SE 22:14:10 23° ESE 22:18:29 10° NE
SJ 16-02 2.1 22:12:01 10° SW 22:16:13 50° WNW 22:20:28 10° NNE
SeaSat 1 4.4 22:15:01 10° SSW 22:18:27 19° WSW 22:21:55 10° WNW
SL-08 R/B 4.4 22:13:36 15° S 22:18:49 88° W 22:24:58 10° N
Cosmos 158 Rocket 4.0 22:17:45 10° NNW 22:23:06 80° ENE 22:26:23 23° SSE
BREEZE-M DEB (TANK) 3.3 22:21:06 10° W 22:23:57 87° N 22:31:46 10° E
Cosmos 2242 Rocket 4.3 22:23:28 24° SSE 22:25:42 41° E 22:30:00 10° NNE
Cosmos 1570 Rocket 4.1 22:21:38 10° NNW 22:26:59 72° WSW 22:30:19 23° S
BREEZE-M DEB (TANK) 3.8 22:25:28 10° WSW 22:27:27 23° SSW 22:27:27 23° SSW
Cosmos 1408 2.7 22:27:18 34° SE 22:27:57 39° E 22:30:47 10° NNE
MINOTAUR 4 R/B 3.8 22:25:28 10° NNE 22:28:18 48° E 22:28:58 39° SE
ATLAS CENTAUR R/B 3.4 22:25:34 10° W 22:28:34 25° NW 22:31:41 10° NNE
Cosmos 2219 Rocket 3.0 22:23:21 10° NW 22:28:40 42° WSW 22:32:21 19° S
EXPRESS MD2 1.8 22:28:07 10° W 22:30:23 80° N 22:30:57 43° E
CZ-4C R/B 2.5 22:28:54 25° SSE 22:30:41 34° ESE 22:35:35 10° NE
COSMOS 2428 2.8 22:29:19 10° NNW 22:35:01 74° WSW 22:38:32 24° SSE
CZ-2C R/B 3.6 22:34:09 10° NNE 22:38:36 86° WNW 22:41:29 22° SSW
CENTAUR R/B 4.0 22:37:02 14° ESE 22:38:40 16° ESE 22:42:24 10° ENE
BREEZE-M DEB (TANK) 3.7 22:23:41 10° W 22:38:46 88° N 22:42:41 10° E
Cosmos 1953 3.6 22:36:58 10° NNW 22:40:22 30° W 22:42:38 17° SW
USA 234 3.6 22:34:40 10° ENE 22:41:10 69° NNW 22:47:39 10° WSW
Okean 1-7 4.3 22:38:23 10° SW 22:42:19 37° WNW 22:46:21 10° N
BlueWalker 3 1.7 22:40:01 10° SW 22:43:44 69° SSE 22:47:28 10° ENE
Meteor 2-5 Rocket 4.4 22:40:27 23° SSE 22:43:45 45° E 22:49:15 10° NNE
Cosmos 405 Rocket 3.8 22:40:55 10° N 22:44:21 33° ENE 22:46:03 22° ESE
Cosmos 1315 Rocket 4.3 22:41:33 10° SW 22:45:09 32° WNW 22:48:46 10° N
ARIANE 5 R/B 2.9 22:45:12 26° S 22:47:29 56° W 22:51:46 10° NNW
Cosmos 773 Rocket 4.0 22:44:35 10° NNW 22:49:45 74° ENE 22:52:47 25° SSE
Cosmos 1455 3.9 22:49:58 10° NW 22:52:44 22° W 22:54:36 15° SW
Cosmos 2360 Rocket 4.4 22:50:44 10° WNW 22:53:43 15° W 22:56:41 10° SW
Cosmos 546 4.5 22:51:25 10° WNW 22:55:16 75° SSW 22:57:35 23° ESE
Cosmos 371 Rocket 3.3 22:53:41 27° S 22:56:09 62° ESE 23:00:56 10° NNE
Cosmos 2084 Rocket 4.3 22:57:00 28° SE 22:57:36 29° ESE 23:01:15 10° ENE
PSLV R/B 4.0 22:55:08 10° N 22:59:07 69° WNW 23:01:19 25° SSW
Cosmos 1782 Rocket 4.2 22:56:10 10° NNW 23:00:19 46° W 23:02:30 25° SSW
GP-B 4.0 22:56:34 10° NNW 23:00:43 41° W 23:03:32 18° SW
Cosmos 1745 Rocket 4.3 22:59:46 18° SSW 23:04:35 68° WNW 23:10:57 10° N
CZ-2C R/B 4.4 23:01:50 23° SSW 23:05:09 78° W 23:30:40 10° N
PSLV R/B 4.5 23:02:40 10° NNE 23:06:29 33° E 23:07:52 26° SE
Cosmos 1892 3.9 23:05:53 22° ESE 23:06:40 24° E 23:09:34 10° NE
Cosmos 1777 Rocket 4.3 23:05:54 28° SSE 23:08:24 51° ESE 23:13:30 10° NNE
H-2A R/B 3.4 23:06:13 10° NE 23:09:40 24° E 23:10:59 20° ESE
Cosmos 1503 Rocket 4.1 23:07:09 28° S 23:09:56 62° ESE 23:15:10 10° NNE
NOSS 8 (H) 4.3 23:11:36 25° SW 23:13:35 85° NW 23:16:37 10° NE
Cosmos 1703 3.0 23:12:37 38° SSW 23:13:57 87° W 23:17:40 10° N
Cosmos 1300 Rocket 4.4 23:11:43 10° NNW 23:15:44 39° W 23:17:47 24° SW
Cosmos 2181 Rocket 4.0 23:17:02 10° N 23:23:16 79° E 23:26:52 26° SSE
SL-16 R/B 3.2 23:19:37 10° NNW 23:25:03 43° NE 23:30:12 11° ESE
COSMOS 2455 2.9 23:21:35 15° SW 23:26:44 81° NW 23:32:49 10° NE
Cosmos 1825 2.7 23:26:52 33° ESE 23:27:35 37° E 23:30:47 10° NNE
Cosmos 2151 Rocket 3.6 23:24:42 10° N 23:29:08 77° E 23:31:01 33° SSE
Spot 4 4.4 23:26:57 27° SSW 23:29:12 47° W 23:33:53 10° NNW
BREEZE-M DEB (TANK) 3.1 23:29:09 34° SW 23:30:11 62° SSE 23:35:32 10° ENE
Cosmos 2237 Rocket 2.2 23:25:27 10° NNW 23:31:06 67° WSW 23:34:01 29° S
Cosmos 2074 Rocket 4.3 23:30:40 25° SSE 23:34:08 55° E 23:40:12 10° NNE
USA 281 4.1 23:30:32 21° SSW 23:34:09 36° WSW 23:40:09 10° NW
Cosmos 2098 Rocket 4.1 23:27:59 10° NNW 23:34:36 73° W 23:38:18 27° S
Okean 2 Rocket 3.1 23:30:54 10° N 23:35:25 81° E 23:37:23 33° SSE
H-2A R/B 3.7 23:34:22 24° SW 23:36:06 32° W 23:39:57 10° NNW
Cosmos 1674 Rocket 3.6 23:35:17 34° SSE 23:37:01 65° E 23:41:20 10° NNE
Cosmos 1378 Rocket 3.5 23:35:17 35° S 23:37:05 77° E 23:41:29 10° NNE
ALOS 2 3.0 23:35:18 31° SSW 23:37:05 52° W 23:41:24 10° NNW
Cosmos 2227 Rocket 2.5 23:35:10 29° S 23:37:50 52° ESE 23:43:20 10° NE
Cosmos 1025 Rocket 4.3 23:37:38 22° SE 23:39:21 30° E 23:43:06 10° NNE
Cosmos 304 Rocket 4.0 23:38:29 23° SW 23:41:23 65° WNW 23:46:09 10° NNE
Cosmos 1980 4.1 23:38:59 10° NW 23:44:27 51° WSW 23:47:07 28° S
Meteor 1-24 Rocket 4.0 23:42:32 23° SSW 23:46:08 65° WNW 23:51:43 10° N
SL-4 R/B 2.7 23:43:08 10° W 23:46:51 34° SW 23:47:04 34° SSW
Cosmos 332 Rocket 3.8 23:48:04 32° S 23:50:19 73° ESE 23:55:13 10° NNE
Cosmos 1354 Rocket 4.0 23:49:34 26° SSW 23:52:40 81° WNW 23:58:00 10° NNE
